Flag for Belgium Weather past 2 weeks in Liège, Belgium

Now
75 °F

Scattered clouds.


Feels Like: 78 °F
Forecast: 60 / 78 °F
Wind: 5 mph from Northwest

Location: Bierset

Current Time: Jul 26, 2014 at 5:28:03 PM

Latest Report: Jul 26, 2014 at 4:50 PM


Visibility: N/A

Pressure: 29.95 "Hg

Humidity: 57%

Dew point: 59 °F

Location of LiègeLocation

Historic Weather in Liège — Graph

°F

Liège temperature yesterday

Maximum temperature yesterday: 73 °F (at 2:20 PM)
Minimum temperature yesterday: 57 °F (at 5:20 AM)
Average temperature yesterday: 66 °F

Past Weeks' High & Low Weather Summary

 TemperatureHumidityPressure
High91 °F (Jul 18, 5:20 PM)100% (Jul 11, 11:20 PM)30.18 "Hg (Jul 11, 11:20 PM)
Low55 °F (Jul 14, 3:50 AM)27% (Jul 19, 1:20 PM)29.74 "Hg (Jul 13, 5:50 PM)
Average69 °F74%29.99 "Hg
* Reported Jul 11 4:20 PM — Jul 26 4:20 PM, Liège, Weather by CustomWeather, © 2014

Note: Actual official high and low records may vary slightly from our data, if they occured in-between our weather recording intervals... More about our weather records

Advertising

Liège weather history for previous 24 hours

 ConditionsComfort  
Time TempWeatherWind HumidityBarometerVisibility
4:20 PM
Jul 26
73 °FScattered clouds.5 mph57%29.95 "HgN/A
3:50 PM73 °FScattered clouds.7 mph57%29.95 "HgN/A
3:20 PM73 °FScattered clouds.3 mph61%29.95 "HgN/A
2:50 PM72 °FScattered clouds.5 mph61%29.95 "HgN/A
2:20 PM73 °FScattered clouds.3 mph57%29.95 "HgN/A
1:50 PM72 °FScattered clouds.3 mph61%29.95 "HgN/A
1:20 PM72 °FScattered clouds.3 mph65%29.98 "Hg6 mi
12:50 PM70 °FScattered clouds.1 mph69%29.98 "Hg5 mi
12:20 PM68 °FScattered clouds.5 mph73%29.98 "Hg4 mi
11:50 AM70 °FBroken clouds.2 mph69%29.98 "Hg4 mi
11:20 AM68 °FPartly sunny.2 mph73%29.98 "Hg3 mi
10:50 AM66 °FFog.2 mph78%29.98 "Hg3 mi
10:20 AM66 °FFog.3 mph78%29.98 "Hg2 mi
9:50 AM64 °FFog.2 mph83%29.98 "Hg2 mi
9:20 AM64 °FFog.3 mph83%29.95 "Hg2 mi
8:50 AM61 °FFog.2 mph94%29.95 "Hg1 mi
8:20 AM63 °FFog.5 mph88%29.95 "Hg1 mi
7:50 AM63 °FFog.2 mph88%29.95 "Hg1 mi
7:20 AM63 °FFog.3 mph88%29.95 "Hg1 mi
6:50 AM61 °FFog.3 mph94%29.95 "Hg1 mi
6:20 AM61 °FFog.3 mph94%29.95 "Hg1 mi
5:50 AM63 °FFog.2 mph88%29.95 "Hg1 mi
5:20 AM63 °FFog.2 mph88%29.92 "Hg1 mi
4:50 AM61 °FFog.3 mph94%29.95 "Hg2 mi
4:20 AM61 °FFog.5 mph94%29.92 "Hg2 mi
3:50 AM61 °FFog.3 mph94%29.95 "Hg2 mi
3:20 AM61 °FFog.3 mph94%29.95 "Hg2 mi
2:50 AM61 °FFog.2 mph94%29.95 "Hg3 mi
2:20 AM63 °FPassing clouds.2 mph88%29.95 "Hg4 mi
1:50 AM63 °FPassing clouds.5 mph88%29.95 "Hg4 mi
1:20 AM63 °FPassing clouds.6 mph88%29.95 "Hg4 mi
12:50 AM63 °FPassing clouds.5 mph88%29.95 "Hg5 mi
12:20 AM63 °FPassing clouds.6 mph88%29.95 "Hg6 mi
11:50 PM
Jul 25
63 °FPassing clouds.6 mph88%29.95 "Hg6 mi
11:20 PM63 °FPassing clouds.6 mph88%29.95 "HgN/A
10:50 PM64 °FPassing clouds.8 mph83%29.95 "HgN/A
10:20 PM64 °FPassing clouds.7 mph83%29.95 "HgN/A
9:50 PM64 °FPassing clouds.7 mph83%29.95 "HgN/A
9:20 PM66 °FPassing clouds.7 mph78%29.92 "HgN/A
8:50 PM68 °FPassing clouds.8 mph73%29.92 "HgN/A
8:20 PM68 °FPassing clouds.8 mph73%29.92 "HgN/A
7:50 PM68 °FScattered clouds.9 mph73%29.92 "HgN/A
7:20 PM70 °FPassing clouds.9 mph69%29.92 "HgN/A
6:50 PM70 °FPassing clouds.9 mph69%29.92 "HgN/A
6:20 PM70 °FPassing clouds.13 mph69%29.92 "HgN/A
5:50 PM70 °FPassing clouds.10 mph69%29.92 "HgN/A
5:20 PM72 °FScattered clouds.12 mph65%29.92 "HgN/A
Weather by CustomWeather, © 2014

See weather overviewHow to use our weather pages